Hourly Data Report for January 20, 2022

MUSKOKA
ONTARIO
Current Station Operator: NAVCAN

44°58'29.000" N
79°18'12.000" W
281.90 m
6115529
71532
YQA

Download Data

Hourly Data (January 2022)
Hourly Data Report for January 20, 2022
TIME
LST
Temp Definition
°C
Dew Point Definition
°C
Rel Hum Definition
%
Precip. Amount Definition
mm

Wind Dir Definition
10's deg

Wind Spd Definition
km/h
Visibility Definition
km
Stn Press Definition
kPa
Hmdx Definition


Wind Chill Definition


Weather Definition


00:00 -17.6 -22.2 68 0.0 33 21 16.1 98.57   -28 LegendNANA
01:00 -18.8 -23.3 68 0.0 33 22 16.1 98.66   -29 LegendNANA
02:00 -20.0 -24.5 68 0.0 33 18 16.1 98.80   -30 LegendNANA
03:00 -21.4 -25.4 71 0.0 33 15 16.1 98.92   -31 LegendNANA
04:00 -21.5 -25.5 71 0.0 34 11 16.1 98.99   -29 LegendNANA
05:00 -22.3 -25.9 73 0.0 32 15 16.1 99.06   -32 LegendNANA
06:00 -23.2 -26.5 75 0.0 33 5 16.1 99.12   -28 LegendNANA
07:00 -24.4 -27.5 76 0.0 31 5 16.1 99.24   -29 LegendNANA
08:00 -25.2 -28.3 76 0.0 31 9 16.1 99.33   -33 LegendNANA
09:00 -23.9 -27.5 73 0.0 33 18 16.1 99.42   -35 LegendNANA
10:00 -22.9 -27.5 67 0.0 33 13 16.1 99.50   -32 LegendNANA
11:00 -21.1 -26.8 61 0.0 34 9 16.1 99.56   -28 LegendNANA
12:00 -19.4 -26.3 55 0.0 33 8 16.1 99.55   -26 LegendNANA
13:00 -18.9 -26.1 54 0.0 29 11 16.1 99.55   -26 LegendNANA
14:00 -18.0 -25.9 51 0.0 30 13 16.1 99.55   -26 LegendNANA
15:00 -17.7 -25.6 51 0.0 30 15 16.1 99.57   -26 LegendNANA
16:00 -17.9 -25.8 51 0.0 30 11 16.1 99.62   -25 LegendNANA
17:00 -18.6 -26.1 53 0.0 31 11 16.1 99.63   -26 LegendNANA
18:00 -21.4 -27.0 61 0.0 30 5 16.1 99.71   -26 LegendNANA
19:00 -22.7 -26.9 69 0.0 29 5 16.1 99.76   -27 LegendNANA
20:00 -26.9 -30.4 73 0.0   0 16.1 99.82     LegendNANA
21:00 -27.4 -30.7 74 0.0   0 16.1 99.85     LegendNANA
22:00 -28.5 -31.9 73 0.0   0 16.1 99.89     LegendNANA
23:00 -29.2 -32.6 73 0.0   0 16.1 99.94     LegendNANA

Notes on Data Quality.

Legend

  • E = Estimated
  • M = Missing
  • NA = Not Available*
  • [empty] = Indicates an unobserved value
Date modified: